Data supplied by UK-AIR on 10/3/2023
All Data GMT hour ending 
Status: R =Ratified P=Provisional,P*=As supplied
,,Bath A4 Roadside,,,,,,,,,,,,,,,,,,,,,,,
Date,time,"Nitric oxide",status,unit,"Nitrogen dioxide",status,unit,"Nitrogen oxides as nitrogen dioxide",status,unit
 
01-01-2022,01:00,3.74070,R,ugm-3,10.58610,R,ugm-3,16.32177,R,ugm-3
01-01-2022,02:00,2.61849,R,ugm-3,8.19372,R,ugm-3,12.20868,R,ugm-3
01-01-2022,03:00,2.11973,R,ugm-3,4.87803,R,ugm-3,8.12824,R,ugm-3
01-01-2022,04:00,1.24690,R,ugm-3,4.06188,R,ugm-3,5.97377,R,ugm-3
01-01-2022,05:00,2.05739,R,ugm-3,3.65156,R,ugm-3,6.80618,R,ugm-3
01-01-2022,06:00,1.24690,R,ugm-3,4.55153,R,ugm-3,6.46342,R,ugm-3
01-01-2022,07:00,1.90153,R,ugm-3,6.14295,R,ugm-3,9.05858,R,ugm-3
01-01-2022,08:00,1.49628,R,ugm-3,6.56845,R,ugm-3,8.86272,R,ugm-3
01-01-2022,09:00,1.65214,R,ugm-3,5.98671,R,ugm-3,8.51996,R,ugm-3
01-01-2022,10:00,4.64471,R,ugm-3,10.35883,R,ugm-3,17.48061,R,ugm-3
01-01-2022,11:00,7.79313,R,ugm-3,13.85541,R,ugm-3,25.80471,R,ugm-3
01-01-2022,12:00,8.69714,R,ugm-3,18.83478,R,ugm-3,32.17020,R,ugm-3
01-01-2022,13:00,6.88913,R,ugm-3,18.03255,R,ugm-3,28.59574,R,ugm-3
01-01-2022,14:00,7.38789,R,ugm-3,16.48435,R,ugm-3,27.81229,R,ugm-3
01-01-2022,15:00,5.76692,R,ugm-3,16.17878,R,ugm-3,25.02127,R,ugm-3
01-01-2022,16:00,7.10734,R,ugm-3,17.15935,R,ugm-3,28.05712,R,ugm-3
01-01-2022,17:00,7.23203,R,ugm-3,17.84954,R,ugm-3,28.93850,R,ugm-3
01-01-2022,18:00,6.07864,R,ugm-3,18.24701,R,ugm-3,27.56747,R,ugm-3
01-01-2022,19:00,5.73575,R,ugm-3,17.10796,R,ugm-3,25.90265,R,ugm-3
01-01-2022,20:00,4.64471,R,ugm-3,13.88433,R,ugm-3,21.00611,R,ugm-3
01-01-2022,21:00,2.93022,R,ugm-3,12.49802,R,ugm-3,16.99096,R,ugm-3
01-01-2022,22:00,2.05739,R,ugm-3,7.51982,R,ugm-3,10.67444,R,ugm-3
01-01-2022,23:00,2.11973,R,ugm-3,7.91388,R,ugm-3,11.16409,R,ugm-3
01-01-2022,24:00,1.27807,R,ugm-3,6.26648,R,ugm-3,8.22617,R,ugm-3
02-01-2022,01:00,1.24861,R,ugm-3,6.64948,R,ugm-3,8.56399,R,ugm-3
02-01-2022,02:00,1.29023,R,ugm-3,4.29758,R,ugm-3,6.27590,R,ugm-3
02-01-2022,03:00,0.74917,R,ugm-3,3.90143,R,ugm-3,5.05014,R,ugm-3
02-01-2022,04:00,0.49944,R,ugm-3,2.02893,R,ugm-3,2.79474,R,ugm-3
02-01-2022,05:00,0.65552,R,ugm-3,1.20126,R,ugm-3,2.20637,R,ugm-3
02-01-2022,06:00,0.34337,R,ugm-3,1.18958,R,ugm-3,1.71607,R,ugm-3
02-01-2022,07:00,0.65552,R,ugm-3,3.89793,R,ugm-3,4.90305,R,ugm-3
02-01-2022,08:00,0.90524,R,ugm-3,5.81946,R,ugm-3,7.20748,R,ugm-3
02-01-2022,09:00,0.99889,R,ugm-3,5.43072,R,ugm-3,6.96232,R,ugm-3
02-01-2022,10:00,5.49388,R,ugm-3,13.98310,R,ugm-3,22.40692,R,ugm-3
02-01-2022,11:00,11.86178,R,ugm-3,28.09695,R,ugm-3,46.28475,R,ugm-3
02-01-2022,12:00,9.64550,R,ugm-3,20.46334,R,ugm-3,35.25290,R,ugm-3
02-01-2022,13:00,13.51618,R,ugm-3,27.08017,R,ugm-3,47.80470,R,ugm-3
02-01-2022,14:00,10.48831,R,ugm-3,20.88712,R,ugm-3,36.96897,R,ugm-3
02-01-2022,15:00,6.30547,R,ugm-3,14.74892,R,ugm-3,24.41717,R,ugm-3
02-01-2022,16:00,4.52621,R,ugm-3,11.78955,R,ugm-3,18.72964,R,ugm-3
02-01-2022,17:00,6.96099,R,ugm-3,23.59892,R,ugm-3,34.27229,R,ugm-3
02-01-2022,18:00,6.02453,R,ugm-3,16.45447,R,ugm-3,25.69196,R,ugm-3
02-01-2022,19:00,4.49499,R,ugm-3,15.66179,R,ugm-3,22.55401,R,ugm-3
02-01-2022,20:00,4.80714,R,ugm-3,17.68372,R,ugm-3,25.05457,R,ugm-3
02-01-2022,21:00,4.08919,R,ugm-3,12.16545,R,ugm-3,18.43545,R,ugm-3
02-01-2022,22:00,2.52843,R,ugm-3,11.76384,R,ugm-3,15.64072,R,ugm-3
02-01-2022,23:00,1.74805,R,ugm-3,9.33216,R,ugm-3,12.01246,R,ugm-3
02-01-2022,24:00,1.18618,R,ugm-3,4.99645,R,ugm-3,6.81523,R,ugm-3
03-01-2022,01:00,0.79187,R,ugm-3,3.04078,R,ugm-3,4.25495,R,ugm-3
03-01-2022,02:00,0.45845,R,ugm-3,1.71911,R,ugm-3,2.42205,R,ugm-3
03-01-2022,03:00,0.37509,R,ugm-3,2.22331,R,ugm-3,2.79845,R,ugm-3
03-01-2022,04:00,0.59390,R,ugm-3,2.67335,R,ugm-3,3.58398,R,ugm-3
03-01-2022,05:00,0.34384,R,ugm-3,1.63300,R,ugm-3,2.16021,R,ugm-3
03-01-2022,06:00,0.65642,R,ugm-3,2.62659,R,ugm-3,3.63308,R,ugm-3
03-01-2022,07:00,1.06277,R,ugm-3,4.99835,R,ugm-3,6.62791,R,ugm-3
03-01-2022,08:00,2.12554,R,ugm-3,9.65304,R,ugm-3,12.91215,R,ugm-3
03-01-2022,09:00,3.81346,R,ugm-3,13.79102,R,ugm-3,19.63825,R,ugm-3
03-01-2022,10:00,4.84497,R,ugm-3,16.38252,R,ugm-3,23.81137,R,ugm-3
03-01-2022,11:00,5.93900,R,ugm-3,18.77998,R,ugm-3,27.88631,R,ugm-3
03-01-2022,12:00,13.56592,R,ugm-3,26.82197,R,ugm-3,47.62275,R,ugm-3
03-01-2022,13:00,12.09680,R,ugm-3,26.81619,R,ugm-3,45.36435,R,ugm-3
03-01-2022,14:00,18.12957,R,ugm-3,34.25858,R,ugm-3,62.05686,R,ugm-3
03-01-2022,15:00,14.22233,R,ugm-3,31.95243,R,ugm-3,53.75970,R,ugm-3
03-01-2022,16:00,13.34711,R,ugm-3,35.45462,R,ugm-3,55.91991,R,ugm-3
03-01-2022,17:00,20.03630,R,ugm-3,41.93962,R,ugm-3,72.66151,R,ugm-3
03-01-2022,18:00,22.97454,R,ugm-3,44.01319,R,ugm-3,79.24032,R,ugm-3
03-01-2022,19:00,27.72573,R,ugm-3,53.02787,R,ugm-3,95.54006,R,ugm-3
03-01-2022,20:00,14.09730,R,ugm-3,42.20874,R,ugm-3,63.82430,R,ugm-3
03-01-2022,21:00,9.28359,R,ugm-3,34.76279,R,ugm-3,48.99742,R,ugm-3
03-01-2022,22:00,7.28308,R,ugm-3,26.29271,R,ugm-3,37.45995,R,ugm-3
03-01-2022,23:00,10.22132,R,ugm-3,27.28618,R,ugm-3,42.95866,R,ugm-3
03-01-2022,24:00,7.47063,R,ugm-3,17.51160,R,ugm-3,28.96641,R,ugm-3
04-01-2022,01:00,8.84762,R,ugm-3,15.79921,R,ugm-3,29.36537,R,ugm-3
04-01-2022,02:00,3.88127,R,ugm-3,17.51488,R,ugm-3,23.46608,R,ugm-3
04-01-2022,03:00,3.38046,R,ugm-3,12.61290,R,ugm-3,17.79620,R,ugm-3
04-01-2022,04:00,3.16135,R,ugm-3,12.30977,R,ugm-3,17.15711,R,ugm-3
04-01-2022,05:00,2.06584,R,ugm-3,10.40080,R,ugm-3,13.56837,R,ugm-3
04-01-2022,06:00,8.85805,R,ugm-3,21.51863,R,ugm-3,35.10079,R,ugm-3
04-01-2022,07:00,9.92227,R,ugm-3,23.91804,R,ugm-3,39.13197,R,ugm-3
04-01-2022,08:00,18.52992,R,ugm-3,18.33975,R,ugm-3,46.75189,R,ugm-3
04-01-2022,09:00,19.09333,R,ugm-3,21.60537,R,ugm-3,50.88140,R,ugm-3
04-01-2022,10:00,27.98268,R,ugm-3,27.68868,R,ugm-3,70.59487,R,ugm-3
04-01-2022,11:00,27.26277,R,ugm-3,31.59470,R,ugm-3,73.39703,R,ugm-3
04-01-2022,12:00,27.07497,R,ugm-3,26.76994,R,ugm-3,68.28431,R,ugm-3
04-01-2022,13:00,30.70583,R,ugm-3,27.44611,R,ugm-3,74.52773,R,ugm-3
04-01-2022,14:00,29.51641,R,ugm-3,27.15595,R,ugm-3,72.41381,R,ugm-3
04-01-2022,15:00,37.59195,R,ugm-3,36.69933,R,ugm-3,94.33952,R,ugm-3
04-01-2022,16:00,42.63134,R,ugm-3,47.16187,R,ugm-3,112.52900,R,ugm-3
04-01-2022,17:00,40.81590,R,ugm-3,48.91311,R,ugm-3,111.49663,R,ugm-3
04-01-2022,18:00,29.23470,R,ugm-3,40.56634,R,ugm-3,85.39226,R,ugm-3
04-01-2022,19:00,24.88393,R,ugm-3,46.74582,R,ugm-3,84.90065,R,ugm-3
04-01-2022,20:00,13.49053,R,ugm-3,33.93242,R,ugm-3,54.61762,R,ugm-3
04-01-2022,21:00,22.78679,R,ugm-3,57.38466,R,ugm-3,92.32393,R,ugm-3
04-01-2022,22:00,14.27305,R,ugm-3,35.38727,R,ugm-3,57.27230,R,ugm-3
04-01-2022,23:00,6.00970,R,ugm-3,25.49275,R,ugm-3,34.70750,R,ugm-3
04-01-2022,24:00,4.44468,R,ugm-3,16.09384,R,ugm-3,22.90892,R,ugm-3
05-01-2022,01:00,2.63283,R,ugm-3,13.22494,R,ugm-3,17.26189,R,ugm-3
05-01-2022,02:00,0.75224,R,ugm-3,9.41375,R,ugm-3,10.56717,R,ugm-3
05-01-2022,03:00,2.97760,R,ugm-3,14.38638,R,ugm-3,18.95198,R,ugm-3
05-01-2022,04:00,3.60447,R,ugm-3,14.65586,R,ugm-3,20.18263,R,ugm-3
05-01-2022,05:00,1.34776,R,ugm-3,6.59723,R,ugm-3,8.66376,R,ugm-3
05-01-2022,06:00,2.31940,R,ugm-3,9.34083,R,ugm-3,12.89719,R,ugm-3
05-01-2022,07:00,6.11193,R,ugm-3,18.49039,R,ugm-3,27.86187,R,ugm-3
05-01-2022,08:00,26.92382,R,ugm-3,45.05966,R,ugm-3,86.34227,R,ugm-3
05-01-2022,09:00,76.85355,R,ugm-3,79.50627,R,ugm-3,197.34674,R,ugm-3
05-01-2022,10:00,30.65366,R,ugm-3,52.77933,R,ugm-3,99.78095,R,ugm-3
05-01-2022,11:00,28.02083,R,ugm-3,43.82063,R,ugm-3,86.78531,R,ugm-3
05-01-2022,12:00,25.63875,R,ugm-3,32.90224,R,ugm-3,72.21443,R,ugm-3
05-01-2022,13:00,27.98949,R,ugm-3,31.16841,R,ugm-3,74.08502,R,ugm-3
05-01-2022,14:00,31.75067,R,ugm-3,39.57840,R,ugm-3,88.26209,R,ugm-3
05-01-2022,15:00,39.36707,R,ugm-3,44.98148,R,ugm-3,105.34348,R,ugm-3
05-01-2022,16:00,52.21779,R,ugm-3,54.56675,R,ugm-3,134.63291,R,ugm-3
05-01-2022,17:00,46.63870,R,ugm-3,62.62898,R,ugm-3,134.14065,R,ugm-3
05-01-2022,18:00,35.76260,R,ugm-3,62.37171,R,ugm-3,117.20693,R,ugm-3
05-01-2022,19:00,62.31030,R,ugm-3,80.49078,R,ugm-3,176.03191,R,ugm-3
05-01-2022,20:00,35.32380,R,ugm-3,60.38633,R,ugm-3,114.54873,R,ugm-3
05-01-2022,21:00,40.27602,R,ugm-3,57.12490,R,ugm-3,118.88061,R,ugm-3
05-01-2022,22:00,43.44169,R,ugm-3,54.87993,R,ugm-3,121.48959,R,ugm-3
05-01-2022,23:00,52.21779,R,ugm-3,49.00422,R,ugm-3,129.07038,R,ugm-3
05-01-2022,24:00,37.39245,R,ugm-3,41.65905,R,ugm-3,98.99334,R,ugm-3
06-01-2022,01:00,17.95272,R,ugm-3,35.63118,R,ugm-3,63.15831,R,ugm-3
06-01-2022,02:00,33.56197,R,ugm-3,32.59676,R,ugm-3,84.05772,R,ugm-3
06-01-2022,03:00,3.57799,R,ugm-3,17.53276,R,ugm-3,23.01894,R,ugm-3
06-01-2022,04:00,3.70353,R,ugm-3,17.88246,R,ugm-3,23.56114,R,ugm-3
06-01-2022,05:00,5.61807,R,ugm-3,20.31961,R,ugm-3,28.93386,R,ugm-3
06-01-2022,06:00,16.44620,R,ugm-3,27.57359,R,ugm-3,52.79075,R,ugm-3
06-01-2022,07:00,40.01700,R,ugm-3,31.40728,R,ugm-3,92.76581,R,ugm-3
06-01-2022,08:00,114.43291,R,ugm-3,49.84818,R,ugm-3,225.30953,R,ugm-3
06-01-2022,09:00,188.72329,R,ugm-3,65.62270,R,ugm-3,354.99437,R,ugm-3
06-01-2022,10:00,117.97952,R,ugm-3,65.35884,R,ugm-3,246.25824,R,ugm-3
06-01-2022,11:00,20.77745,R,ugm-3,41.38823,R,ugm-3,73.24655,R,ugm-3
06-01-2022,12:00,78.30777,R,ugm-3,64.67274,R,ugm-3,184.74297,R,ugm-3
06-01-2022,13:00,46.13724,R,ugm-3,52.18917,R,ugm-3,122.93196,R,ugm-3
06-01-2022,14:00,13.11930,R,ugm-3,26.11906,R,ugm-3,46.23503,R,ugm-3
06-01-2022,15:00,10.57704,R,ugm-3,19.12380,R,ugm-3,35.34171,R,ugm-3
06-01-2022,16:00,9.50992,R,ugm-3,22.38664,R,ugm-3,36.96831,R,ugm-3
06-01-2022,17:00,14.34335,R,ugm-3,30.84722,R,ugm-3,52.84004,R,ugm-3
06-01-2022,18:00,22.00150,R,ugm-3,44.48978,R,ugm-3,78.22495,R,ugm-3
06-01-2022,19:00,66.25559,R,ugm-3,82.36383,R,ugm-3,183.95432,R,ugm-3
06-01-2022,20:00,16.41482,R,ugm-3,42.45833,R,ugm-3,67.62736,R,ugm-3
06-01-2022,21:00,5.58669,R,ugm-3,22.29008,R,ugm-3,30.85622,R,ugm-3
06-01-2022,22:00,4.26848,R,ugm-3,17.45985,R,ugm-3,24.00476,R,ugm-3
06-01-2022,23:00,4.17432,R,ugm-3,12.42866,R,ugm-3,18.82919,R,ugm-3
06-01-2022,24:00,1.22405,R,ugm-3,7.78420,R,ugm-3,9.66105,R,ugm-3
07-01-2022,01:00,3.52000,R,ugm-3,7.50118,R,ugm-3,12.89843,R,ugm-3
07-01-2022,02:00,1.34095,R,ugm-3,4.32731,R,ugm-3,6.38341,R,ugm-3
07-01-2022,03:00,2.32571,R,ugm-3,6.25585,R,ugm-3,9.82189,R,ugm-3
07-01-2022,04:00,2.26286,R,ugm-3,6.15480,R,ugm-3,9.62447,R,ugm-3
07-01-2022,05:00,4.55714,R,ugm-3,9.49747,R,ugm-3,16.48498,R,ugm-3
07-01-2022,06:00,2.20000,R,ugm-3,8.57093,R,ugm-3,11.94421,R,ugm-3
07-01-2022,07:00,13.10570,R,ugm-3,33.75252,R,ugm-3,53.84766,R,ugm-3
07-01-2022,08:00,29.79426,R,ugm-3,52.04145,R,ugm-3,97.72535,R,ugm-3
07-01-2022,09:00,56.25710,R,ugm-3,78.29401,R,ugm-3,164.55370,R,ugm-3
07-01-2022,10:00,48.43139,R,ugm-3,75.48639,R,ugm-3,149.74682,R,ugm-3
07-01-2022,11:00,23.75998,R,ugm-3,47.32607,R,ugm-3,83.75753,R,ugm-3
07-01-2022,12:00,16.56284,R,ugm-3,35.65766,R,ugm-3,61.05367,R,ugm-3
07-01-2022,13:00,18.10284,R,ugm-3,39.36718,R,ugm-3,67.12448,R,ugm-3
07-01-2022,14:00,17.91427,R,ugm-3,28.64987,R,ugm-3,56.11804,R,ugm-3
07-01-2022,15:00,31.64855,R,ugm-3,56.50298,R,ugm-3,105.03007,R,ugm-3
07-01-2022,16:00,47.36282,R,ugm-3,58.76432,R,ugm-3,131.38630,R,ugm-3
07-01-2022,17:00,36.55140,R,ugm-3,62.70641,R,ugm-3,118.75111,R,ugm-3
07-01-2022,18:00,60.53138,R,ugm-3,67.49557,R,ugm-3,160.30906,R,ugm-3
07-01-2022,19:00,28.03427,R,ugm-3,55.67785,R,ugm-3,98.66312,R,ugm-3
07-01-2022,20:00,22.81713,R,ugm-3,54.94129,R,ugm-3,89.92706,R,ugm-3
07-01-2022,21:00,28.22284,R,ugm-3,63.72991,R,ugm-3,107.00432,R,ugm-3
07-01-2022,22:00,48.02282,R,ugm-3,72.55921,R,ugm-3,146.19318,R,ugm-3
07-01-2022,23:00,50.78853,R,ugm-3,71.32924,R,ugm-3,149.20391,R,ugm-3
07-01-2022,24:00,40.16568,R,ugm-3,57.85557,R,ugm-3,119.44210,R,ugm-3
08-01-2022,01:00,34.28265,R,ugm-3,51.21894,R,ugm-3,103.78493,R,ugm-3
08-01-2022,02:00,13.13399,R,ugm-3,30.27132,R,ugm-3,50.40982,R,ugm-3
08-01-2022,03:00,14.19352,R,ugm-3,29.58574,R,ugm-3,51.34883,R,ugm-3
08-01-2022,04:00,5.97953,R,ugm-3,22.65889,R,ugm-3,31.82738,R,ugm-3
08-01-2022,05:00,8.27693,R,ugm-3,23.33708,R,ugm-3,36.02820,R,ugm-3
08-01-2022,06:00,4.65774,R,ugm-3,9.51324,R,ugm-3,16.65501,R,ugm-3
08-01-2022,07:00,2.29740,R,ugm-3,8.09140,R,ugm-3,11.61403,R,ugm-3
08-01-2022,08:00,3.24154,R,ugm-3,11.68473,R,ugm-3,16.65501,R,ugm-3
08-01-2022,09:00,4.72068,R,ugm-3,15.64383,R,ugm-3,22.88210,R,ugm-3
08-01-2022,10:00,8.56017,R,ugm-3,22.90278,R,ugm-3,36.02820,R,ugm-3
08-01-2022,11:00,6.76631,R,ugm-3,21.65020,R,ugm-3,32.02506,R,ugm-3
08-01-2022,12:00,11.70729,R,ugm-3,25.24337,R,ugm-3,43.19430,R,ugm-3
08-01-2022,13:00,13.02908,R,ugm-3,26.97267,R,ugm-3,46.95032,R,ugm-3
08-01-2022,14:00,8.59164,R,ugm-3,18.35718,R,ugm-3,31.53085,R,ugm-3
08-01-2022,15:00,25.30286,R,ugm-3,52.18761,R,ugm-3,90.98479,R,ugm-3
08-01-2022,16:00,24.32725,R,ugm-3,54.96848,R,ugm-3,92.26974,R,ugm-3
08-01-2022,17:00,18.37919,R,ugm-3,39.22975,R,ugm-3,67.41078,R,ugm-3
08-01-2022,18:00,19.92128,R,ugm-3,39.33631,R,ugm-3,69.88185,R,ugm-3
08-01-2022,19:00,18.97714,R,ugm-3,31.73985,R,ugm-3,60.83773,R,ugm-3
08-01-2022,20:00,10.10226,R,ugm-3,19.84638,R,ugm-3,35.33630,R,ugm-3
08-01-2022,21:00,5.75923,R,ugm-3,18.20280,R,ugm-3,27.03350,R,ugm-3
08-01-2022,22:00,5.28717,R,ugm-3,14.52813,R,ugm-3,22.63500,R,ugm-3
08-01-2022,23:00,6.01100,R,ugm-3,14.15958,R,ugm-3,23.37632,R,ugm-3
08-01-2022,24:00,5.50746,R,ugm-3,13.15249,R,ugm-3,21.59715,R,ugm-3
09-01-2022,01:00,5.63048,R,ugm-3,11.88714,R,ugm-3,20.52042,R,ugm-3
09-01-2022,02:00,3.40350,R,ugm-3,10.94698,R,ugm-3,16.16561,R,ugm-3
09-01-2022,03:00,1.38661,R,ugm-3,7.87018,R,ugm-3,9.99628,R,ugm-3
09-01-2022,04:00,1.19753,R,ugm-3,9.64470,R,ugm-3,11.48088,R,ugm-3
09-01-2022,05:00,5.51493,R,ugm-3,21.38428,R,ugm-3,29.84039,R,ugm-3
09-01-2022,06:00,2.30051,R,ugm-3,13.59494,R,ugm-3,17.12235,R,ugm-3
09-01-2022,07:00,8.76086,R,ugm-3,30.70887,R,ugm-3,44.14200,R,ugm-3
09-01-2022,08:00,13.77157,R,ugm-3,41.43489,R,ugm-3,62.55100,R,ugm-3
09-01-2022,09:00,5.79856,R,ugm-3,31.78695,R,ugm-3,40.67794,R,ugm-3
09-01-2022,10:00,7.15365,R,ugm-3,25.50281,R,ugm-3,36.47159,R,ugm-3
09-01-2022,11:00,12.06982,R,ugm-3,27.07032,R,ugm-3,45.57711,R,ugm-3
09-01-2022,12:00,10.99835,R,ugm-3,18.86539,R,ugm-3,35.72929,R,ugm-3
09-01-2022,13:00,19.63315,R,ugm-3,28.04295,R,ugm-3,58.14670,R,ugm-3
09-01-2022,14:00,22.75303,R,ugm-3,39.68874,R,ugm-3,74.57623,R,ugm-3
09-01-2022,15:00,26.50318,R,ugm-3,54.82191,R,ugm-3,95.45955,R,ugm-3
09-01-2022,16:00,28.58309,R,ugm-3,54.79989,R,ugm-3,98.62669,R,ugm-3
09-01-2022,17:00,43.89884,R,ugm-3,70.85582,R,ugm-3,138.16645,R,ugm-3
09-01-2022,18:00,62.93323,R,ugm-3,83.23887,R,ugm-3,179.73515,R,ugm-3
09-01-2022,19:00,76.01149,R,ugm-3,89.36420,R,ugm-3,205.91353,R,ugm-3
09-01-2022,20:00,79.57256,R,ugm-3,81.28118,R,ugm-3,203.29074,R,ugm-3
09-01-2022,21:00,38.91965,R,ugm-3,64.83219,R,ugm-3,124.50816,R,ugm-3
09-01-2022,22:00,32.80596,R,ugm-3,64.70498,R,ugm-3,115.00674,R,ugm-3
09-01-2022,23:00,32.99504,R,ugm-3,62.83148,R,ugm-3,113.42317,R,ugm-3
09-01-2022,24:00,12.95221,R,ugm-3,34.62492,R,ugm-3,54.48469,R,ugm-3
10-01-2022,01:00,8.83584,R,ugm-3,38.91065,R,ugm-3,52.45874,R,ugm-3
10-01-2022,02:00,6.94244,R,ugm-3,32.89450,R,ugm-3,43.53943,R,ugm-3
10-01-2022,03:00,7.00556,R,ugm-3,33.45842,R,ugm-3,44.20012,R,ugm-3
10-01-2022,04:00,9.68786,R,ugm-3,30.03933,R,ugm-3,44.89385,R,ugm-3
10-01-2022,05:00,10.31899,R,ugm-3,28.03102,R,ugm-3,43.85326,R,ugm-3
10-01-2022,06:00,10.25588,R,ugm-3,26.54214,R,ugm-3,42.26760,R,ugm-3
10-01-2022,07:00,45.72545,R,ugm-3,45.83961,R,ugm-3,115.95099,R,ugm-3
10-01-2022,08:00,105.24111,R,ugm-3,54.82663,R,ugm-3,216.19409,R,ugm-3
10-01-2022,09:00,125.78443,R,ugm-3,66.63551,R,ugm-3,259.50228,R,ugm-3
10-01-2022,10:00,74.50503,R,ugm-3,65.28638,R,ugm-3,179.52583,R,ugm-3
10-01-2022,11:00,41.33909,R,ugm-3,51.77245,R,ugm-3,115.15816,R,ugm-3
10-01-2022,12:00,22.53138,R,ugm-3,41.41513,R,ugm-3,75.96276,R,ugm-3
10-01-2022,13:00,12.18083,R,ugm-3,31.66752,R,ugm-3,50.34453,R,ugm-3
10-01-2022,14:00,30.42052,R,ugm-3,51.66644,R,ugm-3,98.31058,R,ugm-3
10-01-2022,15:00,12.93819,R,ugm-3,35.61008,R,ugm-3,55.44836,R,ugm-3
10-01-2022,16:00,18.17658,R,ugm-3,38.52892,R,ugm-3,66.39928,R,ugm-3
10-01-2022,17:00,37.93098,R,ugm-3,61.85421,R,ugm-3,120.01423,R,ugm-3
10-01-2022,18:00,31.43033,R,ugm-3,55.56877,R,ugm-3,103.76127,R,ugm-3
10-01-2022,19:00,16.37785,R,ugm-3,43.86362,R,ugm-3,68.97597,R,ugm-3
10-01-2022,20:00,12.27550,R,ugm-3,34.29726,R,ugm-3,53.11943,R,ugm-3
10-01-2022,21:00,6.50065,R,ugm-3,25.36284,R,ugm-3,35.33037,R,ugm-3
10-01-2022,22:00,9.21452,R,ugm-3,25.51264,R,ugm-3,39.64137,R,ugm-3
10-01-2022,23:00,11.13946,R,ugm-3,23.79988,R,ugm-3,40.88016,R,ugm-3
10-01-2022,24:00,13.28531,R,ugm-3,27.05046,R,ugm-3,47.42098,R,ugm-3
11-01-2022,01:00,6.27771,R,ugm-3,21.53370,R,ugm-3,31.15939,R,ugm-3
11-01-2022,02:00,8.59499,R,ugm-3,16.85594,R,ugm-3,30.03474,R,ugm-3
11-01-2022,03:00,13.93526,R,ugm-3,24.33003,R,ugm-3,45.69713,R,ugm-3
11-01-2022,04:00,13.90366,R,ugm-3,23.68385,R,ugm-3,45.00249,R,ugm-3
11-01-2022,05:00,14.28285,R,ugm-3,23.99553,R,ugm-3,45.89560,R,ugm-3
11-01-2022,06:00,24.20501,R,ugm-3,26.09806,R,ugm-3,63.21188,R,ugm-3
11-01-2022,07:00,36.21271,R,ugm-3,40.83056,R,ugm-3,96.35594,R,ugm-3
11-01-2022,08:00,91.47976,R,ugm-3,58.49814,R,ugm-3,198.76514,R,ugm-3
11-01-2022,09:00,124.40615,R,ugm-3,67.20463,R,ugm-3,257.95806,R,ugm-3
11-01-2022,10:00,129.71482,R,ugm-3,61.54562,R,ugm-3,260.43890,R,ugm-3
11-01-2022,11:00,96.03004,R,ugm-3,65.06653,R,ugm-3,212.31055,R,ugm-3
11-01-2022,12:00,60.07013,R,ugm-3,47.96216,R,ugm-3,140.06840,R,ugm-3
11-01-2022,13:00,50.24277,R,ugm-3,42.68765,R,ugm-3,119.72549,R,ugm-3
11-01-2022,14:00,36.27591,R,ugm-3,44.10760,R,ugm-3,99.72989,R,ugm-3
11-01-2022,15:00,41.07899,R,ugm-3,44.63206,R,ugm-3,107.61897,R,ugm-3
11-01-2022,16:00,49.48439,R,ugm-3,60.76984,R,ugm-3,136.64484,R,ugm-3
11-01-2022,17:00,55.04585,R,ugm-3,62.71153,R,ugm-3,147.11399,R,ugm-3
11-01-2022,18:00,72.89941,R,ugm-3,67.38895,R,ugm-3,179.16649,R,ugm-3
11-01-2022,19:00,40.63660,R,ugm-3,53.19946,R,ugm-3,115.50805,R,ugm-3
11-01-2022,20:00,33.62158,R,ugm-3,50.31105,R,ugm-3,101.86341,R,ugm-3
11-01-2022,21:00,37.66628,R,ugm-3,49.66635,R,ugm-3,107.42050,R,ugm-3
11-01-2022,22:00,16.21040,R,ugm-3,41.08521,R,ugm-3,65.94081,R,ugm-3
11-01-2022,23:00,19.49672,R,ugm-3,39.17211,R,ugm-3,69.06667,R,ugm-3
11-01-2022,24:00,14.56724,R,ugm-3,34.37594,R,ugm-3,56.71207,R,ugm-3
12-01-2022,01:00,24.76506,R,ugm-3,38.60399,R,ugm-3,76.57655,R,ugm-3
12-01-2022,02:00,9.99884,R,ugm-3,34.68189,R,ugm-3,50.01323,R,ugm-3
12-01-2022,03:00,9.74570,R,ugm-3,23.31195,R,ugm-3,38.25515,R,ugm-3
12-01-2022,04:00,5.85375,R,ugm-3,18.49853,R,ugm-3,27.47416,R,ugm-3
12-01-2022,05:00,5.79047,R,ugm-3,19.39048,R,ugm-3,28.26907,R,ugm-3
12-01-2022,06:00,16.13737,R,ugm-3,22.60335,R,ugm-3,47.34696,R,ugm-3
12-01-2022,07:00,42.52671,R,ugm-3,31.17641,R,ugm-3,96.38311,R,ugm-3
12-01-2022,08:00,95.81166,R,ugm-3,44.36661,R,ugm-3,191.27576,R,ugm-3
12-01-2022,09:00,115.74605,R,ugm-3,63.63203,R,ugm-3,241.10683,R,ugm-3
12-01-2022,10:00,94.57762,R,ugm-3,47.15304,R,ugm-3,192.17004,R,ugm-3
12-01-2022,11:00,101.71814,R,ugm-3,62.76772,R,ugm-3,218.73336,R,ugm-3
12-01-2022,12:00,62.52438,R,ugm-3,47.91037,R,ugm-3,143.77976,R,ugm-3
12-01-2022,13:00,47.77926,R,ugm-3,40.41194,R,ugm-3,113.67245,R,ugm-3
12-01-2022,14:00,64.39125,R,ugm-3,52.20209,R,ugm-3,150.93397,R,ugm-3
12-01-2022,15:00,61.63841,R,ugm-3,60.79507,R,ugm-3,155.30598,R,ugm-3
12-01-2022,16:00,117.10665,R,ugm-3,84.99571,R,ugm-3,264.55674,R,ugm-3
12-01-2022,17:00,113.11977,R,ugm-3,75.30996,R,ugm-3,248.75786,R,ugm-3
12-01-2022,18:00,168.46144,R,ugm-3,82.06755,R,ugm-3,340.37150,R,ugm-3
12-01-2022,19:00,110.68335,R,ugm-3,62.45197,R,ugm-3,232.16406,R,ugm-3
12-01-2022,20:00,106.94960,R,ugm-3,55.50805,R,ugm-3,219.49515,R,ugm-3
12-01-2022,21:00,126.75743,R,ugm-3,60.60943,R,ugm-3,254.96811,R,ugm-3
12-01-2022,22:00,105.71557,R,ugm-3,44.33384,R,ugm-3,206.42878,R,ugm-3
12-01-2022,23:00,87.23670,R,ugm-3,34.85969,R,ugm-3,168.62077,R,ugm-3
12-01-2022,24:00,57.39840,R,ugm-3,34.45653,R,ugm-3,122.46617,R,ugm-3
13-01-2022,01:00,47.04804,R,ugm-3,44.98857,R,ugm-3,117.12788,R,ugm-3
13-01-2022,02:00,48.31390,R,ugm-3,26.35305,R,ugm-3,100.43334,R,ugm-3
13-01-2022,03:00,41.67865,R,ugm-3,25.73537,R,ugm-3,89.64174,R,ugm-3
13-01-2022,04:00,40.00138,R,ugm-3,22.67025,R,ugm-3,84.00484,R,ugm-3
13-01-2022,05:00,34.21004,R,ugm-3,22.42138,R,ugm-3,74.87605,R,ugm-3
13-01-2022,06:00,36.29872,R,ugm-3,19.06913,R,ugm-3,74.72639,R,ugm-3
13-01-2022,07:00,54.27402,R,ugm-3,29.21977,R,ugm-3,112.43878,R,ugm-3
13-01-2022,08:00,128.61203,R,ugm-3,46.43162,R,ugm-3,243.63398,R,ugm-3
13-01-2022,09:00,174.91109,R,ugm-3,49.56849,R,ugm-3,317.76176,R,ugm-3
13-01-2022,10:00,134.81478,R,ugm-3,44.55315,R,ugm-3,251.26625,R,ugm-3
13-01-2022,11:00,103.35799,R,ugm-3,38.81160,R,ugm-3,197.29165,R,ugm-3
13-01-2022,12:00,105.06691,R,ugm-3,44.27252,R,ugm-3,205.37287,R,ugm-3
13-01-2022,13:00,119.02309,R,ugm-3,59.58805,R,ugm-3,242.08757,R,ugm-3
13-01-2022,14:00,86.96502,R,ugm-3,74.32303,R,ugm-3,207.66754,R,ugm-3
13-01-2022,15:00,60.06536,R,ugm-3,72.96757,R,ugm-3,165.06651,R,ugm-3
13-01-2022,16:00,172.12619,R,ugm-3,105.66821,R,ugm-3,369.59135,R,ugm-3
13-01-2022,17:00,206.39952,R,ugm-3,92.47506,R,ugm-3,408.94991,R,ugm-3
13-01-2022,18:00,186.39883,R,ugm-3,84.33252,R,ugm-3,370.14008,R,ugm-3
13-01-2022,19:00,140.09977,R,ugm-3,57.65035,R,ugm-3,272.46700,R,ugm-3
13-01-2022,20:00,129.94119,R,ugm-3,60.45629,R,ugm-3,259.69666,R,ugm-3
13-01-2022,21:00,110.95319,R,ugm-3,46.32129,R,ugm-3,216.44714,R,ugm-3
13-01-2022,22:00,97.72489,R,ugm-3,42.56026,R,ugm-3,192.40300,R,ugm-3
13-01-2022,23:00,79.08501,R,ugm-3,34.82539,R,ugm-3,156.08737,R,ugm-3
13-01-2022,24:00,74.62283,R,ugm-3,34.98283,R,ugm-3,149.40290,R,ugm-3
14-01-2022,01:00,76.34324,R,ugm-3,30.99680,R,ugm-3,148.05480,R,ugm-3
14-01-2022,02:00,43.00374,R,ugm-3,41.51344,R,ugm-3,107.45159,R,ugm-3
14-01-2022,03:00,46.87576,R,ugm-3,20.53387,R,ugm-3,92.40904,R,ugm-3
14-01-2022,04:00,28.48629,R,ugm-3,26.79292,R,ugm-3,70.47128,R,ugm-3
14-01-2022,05:00,23.51701,R,ugm-3,20.73884,R,ugm-3,56.79775,R,ugm-3
14-01-2022,06:00,17.56654,R,ugm-3,20.54673,R,ugm-3,47.48172,R,ugm-3
14-01-2022,07:00,45.03998,R,ugm-3,29.05852,R,ugm-3,98.11886,R,ugm-3
14-01-2022,08:00,119.16762,R,ugm-3,44.26951,R,ugm-3,226.99065,R,ugm-3
14-01-2022,09:00,151.89520,R,ugm-3,45.07567,R,ugm-3,277.97840,R,ugm-3
14-01-2022,10:00,119.23093,R,ugm-3,47.62839,R,ugm-3,230.44660,R,ugm-3
14-01-2022,11:00,106.28549,R,ugm-3,43.88718,R,ugm-3,206.85600,R,ugm-3
14-01-2022,12:00,93.46667,R,ugm-3,46.31279,R,ugm-3,189.62635,R,ugm-3
14-01-2022,13:00,77.95747,R,ugm-3,55.66841,R,ugm-3,175.20152,R,ugm-3
14-01-2022,14:00,60.20101,R,ugm-3,54.19520,R,ugm-3,146.50213,R,ugm-3
14-01-2022,15:00,92.20061,R,ugm-3,61.92759,R,ugm-3,203.29988,R,ugm-3
14-01-2022,16:00,120.37038,R,ugm-3,83.14539,R,ugm-3,267.71073,R,ugm-3
14-01-2022,17:00,225.70633,R,ugm-3,109.50585,R,ugm-3,455.58406,R,ugm-3
14-01-2022,18:00,167.87917,R,ugm-3,87.03165,R,ugm-3,344.44279,R,ugm-3
14-01-2022,19:00,146.41950,R,ugm-3,75.65981,R,ugm-3,300.16659,R,ugm-3
14-01-2022,20:00,87.92767,R,ugm-3,68.93012,R,ugm-3,203.75066,R,ugm-3
14-01-2022,21:00,88.97216,R,ugm-3,47.69479,R,ugm-3,184.11687,R,ugm-3
14-01-2022,22:00,67.70240,R,ugm-3,47.70185,R,ugm-3,151.51075,R,ugm-3
14-01-2022,23:00,33.58216,R,ugm-3,38.11228,R,ugm-3,89.60421,R,ugm-3
14-01-2022,24:00,20.57343,R,ugm-3,46.58899,R,ugm-3,78.13447,R,ugm-3
15-01-2022,01:00,21.18855,R,ugm-3,50.52055,R,ugm-3,83.00920,R,ugm-3
15-01-2022,02:00,55.25061,R,ugm-3,50.99491,R,ugm-3,135.71133,R,ugm-3
15-01-2022,03:00,9.84508,R,ugm-3,38.31059,R,ugm-3,53.40616,R,ugm-3
15-01-2022,04:00,13.99204,R,ugm-3,34.01382,R,ugm-3,55.46798,R,ugm-3
15-01-2022,05:00,36.37297,R,ugm-3,61.45090,R,ugm-3,117.22200,R,ugm-3
15-01-2022,06:00,10.60483,R,ugm-3,36.49191,R,ugm-3,52.75242,R,ugm-3
15-01-2022,07:00,23.29896,R,ugm-3,34.32702,R,ugm-3,70.05159,R,ugm-3
15-01-2022,08:00,44.66689,R,ugm-3,38.32405,R,ugm-3,106.81233,R,ugm-3
15-01-2022,09:00,73.37906,R,ugm-3,40.31313,R,ugm-3,152.82611,R,ugm-3
15-01-2022,10:00,96.29814,R,ugm-3,45.09992,R,ugm-3,192.75501,R,ugm-3
15-01-2022,11:00,90.66334,R,ugm-3,50.11907,R,ugm-3,189.13426,R,ugm-3
15-01-2022,12:00,100.73001,R,ugm-3,52.68694,R,ugm-3,207.13746,R,ugm-3
15-01-2022,13:00,121.84469,R,ugm-3,54.90989,R,ugm-3,241.73581,R,ugm-3